Hyalite Weather Station

This weather station provides temperature, wind speed, gust or max wind speed, and wind direction at 9982ft near the summit of Flanders Mountain. This data can be used with temperature and precipitation data from the Shower Falls SNOTEL site. If the data has not been updated recently you can view it directly on datagarrison.com

Elevation
9982ft
Jump to table bottom
Date Time Temperature
deg F
RH, % Wind Speed Wind Gust Wind Direction
12/08/19 12:00 19.3 95 20 36 W - 277
12/08/19 11:00 20.2 96 19 31 W - 274
12/08/19 10:00 20.2 96 20 38 W - 274
12/08/19 09:00 21.2 96 17 33 W - 268
12/08/19 08:00 21.7 96 17 34 W - 267
12/08/19 07:00 21.7 96 19 30 W - 260
12/08/19 06:00 22.1 96 20 31 W - 253
12/08/19 05:00 22.2 96 27 37 W - 251
12/08/19 04:00 22.5 96 25 45 W - 251
12/08/19 03:00 22.0 94 28 45 SW - 246
12/08/19 02:00 22.2 94 20 36 SW - 239
12/08/19 01:00 22.2 88 25 42 SW - 241
12/08/19 00:00 22.1 88 31 45 SW - 237
12/07/19 23:00 22.1 86 28 41 SW - 237
12/07/19 22:00 22.1 86 28 44 SW - 241
12/07/19 21:00 21.7 89 22 37 SW - 239
12/07/19 20:00 21.7 83 25 39 SW - 244
12/07/19 19:00 22.3 84 27 41 SW - 246
12/07/19 18:00 22.0 89 20 37 SW - 247
12/07/19 17:00 21.6 90 28 45 SW - 244
12/07/19 16:00 22.3 88 34 52 SW - 244
12/07/19 15:00 22.2 85 24 41 SW - 243
12/07/19 14:00 23.6 83 28 48 SW - 246
12/07/19 13:00 23.1 78 32 50 W - 250
12/07/19 12:00 24.8 75 34 50 SW - 246
12/07/19 11:00 23.8 75 32 48 SW - 244
12/07/19 10:00 23.1 73 23 38 SW - 239
12/07/19 09:00 23.5 74 24 41 SW - 237
12/07/19 08:00 22.9 78 32 47 SW - 234
12/07/19 07:00 21.0 76 24 37 SW - 236
12/07/19 06:00 21.2 76 26 37 SW - 241
12/07/19 05:00 21.8 74 27 38 SW - 240
12/07/19 04:00 23.6 61 29 40 SW - 240
12/07/19 03:00 26.6 53 35 51 SW - 241
12/07/19 02:00 26.3 53 38 50 SW - 237
12/07/19 01:00 26.0 51 29 44 SW - 234
12/07/19 00:00 27.1 43 29 43 SW - 232
12/06/19 23:00 30.1 36 28 41 SW - 236
12/06/19 22:00 32.3 32 29 41 SW - 237
12/06/19 21:00 31.9 31 26 39 SW - 237
12/06/19 20:00 32.7 31 20 31 SW - 240
12/06/19 19:00 31.1 33 18 27 SW - 246
12/06/19 18:00 30.8 39 20 29 W - 251
12/06/19 17:00 26.9 57 20 33 SW - 236
12/06/19 16:00 25.5 65 13 23 SW - 227
12/06/19 15:00 26.6 67 15 24 SW - 234
12/06/19 14:00 25.0 73 16 24 SW - 237
12/06/19 13:00 24.7 71 14 26 SW - 240
12/06/19 12:00 24.5 67 12 21 W - 251
12/06/19 11:00 25.5 59 14 20 W - 257